Weather History for 15420 - January, 2010

Change the Weather History Date:

Sunday, January 31, 2010

  Actual Average Record
Temperature  
Mean Temperature 29 °F -  
Max Temperature 38 °F 39 °F - ()
Min Temperature 20 °F 26 °F - ()
Degree Days  
Heating Degree Days 36    
Moisture  
Dew Point 29 °F    
Average Humidity 95    
Maximum Humidity 100    
Minimum Humidity 76    
Precipitation  
Precipitation 0.01 in 0.05 in - ()
Sea Level Pressure  
Sea Level Pressure 29.47 in    
Wind  
Wind Speed 4 mph ()    
Max Wind Speed 16 mph    
Max Gust Speed -    
Visibility 1.7 miles    
Events Fog , Rain    
T = Trace of Precipitation, MM = Missing Value Source: Averaged Metar Reports

Daily Weather History Graph

Daily Weather History Graph

Search for Another Location

Airport or City:

Trip Planner

Search our weather history database for the weather conditions in past years. The results will help you decide how hot, cold, wet, or windy it might be!

Date:

Astronomy

Jan. 31, 2010 Rise Set
Actual Time 7:35 AM EET 5:23 PM EET
Civil Twilight 7:04 AM EET 5:54 PM EET
Nautical Twilight 6:29 AM EET 6:29 PM EET
Astronomical Twilight 5:55 AM EET 7:03 PM EET
Moon 7:17 PM EET (1/31) 8:01 AM EET (1/31)
Length of Visible Light 10h 49m
Length of Day
9h 47m
Full, 98% of the Moon is Illuminated
Jan 31
Full
Feb 6
Last Quarter
Feb 14
New
Feb 22
First Quarter
Feb 28
Full

Hourly Weather History & Observations

Time (EET) Temp. Windchill Dew Point Humidity Pressure Visibility Wind Dir Wind Speed Gust Speed Precip Events Conditions
12:00 AM 21 °F - 19 °F 90% 29.53 in 6 mi NE 4.5 mph - -   Scattered Clouds
12:00 AM 19.4 °F 12.8 °F 19.4 °F 100% 29.50 in 0.9 mi East 4.6 mph - N/A   Scattered Clouds
12:30 AM 21.2 °F 16.4 °F 21.2 °F 100% 29.50 in 0.4 mi NE 3.5 mph - N/A Fog Fog
1:00 AM 22 °F - 22 °F 98% 29.52 in 0 mi ENE 4.5 mph - - Fog Partial Fog
1:00 AM 21.2 °F - 21.2 °F 100% 29.50 in 0.1 mi Variable 2.3 mph - N/A Fog Light Freezing Fog
1:30 AM 23.0 °F 18.4 °F 21.2 °F 93% 29.50 in 0.2 mi NE 3.5 mph - N/A Fog Light Freezing Fog
2:00 AM 22 °F - 21 °F 95% 29.52 in 0 mi NNE 2.2 mph - - Fog Partial Fog
2:00 AM 23.0 °F - 21.2 °F 93% 29.50 in 0.1 mi Variable 2.3 mph - N/A Fog Light Freezing Fog
2:30 AM 23.0 °F - 23.0 °F 100% 29.50 in 0.1 mi Variable 2.3 mph - N/A Fog Light Freezing Fog
3:00 AM 23 °F - 22 °F 95% 29.52 in 0 mi NE 2.2 mph - - Fog Partial Fog
3:00 AM 23.0 °F 18.4 °F 23.0 °F 100% 29.50 in 0.1 mi NE 3.5 mph - N/A Fog Light Freezing Fog
3:30 AM 24.8 °F 20.5 °F 23.0 °F 93% 29.50 in 0.2 mi NE 3.5 mph - N/A Fog Light Freezing Fog
4:00 AM 23 °F - 23 °F 99% 29.51 in 0 mi NNE 2.2 mph - - Fog Partial Fog
4:00 AM 24.8 °F - 23.0 °F 93% 29.50 in 0.5 mi Variable 2.3 mph - N/A Fog Light Freezing Fog
4:30 AM 24.8 °F - 23.0 °F 93% 29.47 in 0.9 mi Variable 2.3 mph - N/A   Overcast
5:00 AM 24 °F - 23 °F 95% 29.51 in 0 mi North 4.5 mph - - Fog Partial Fog
5:00 AM 24.8 °F - 23.0 °F 93% 29.47 in 0.6 mi NNE 2.3 mph - N/A   Overcast
5:30 AM 24.8 °F 20.5 °F 24.8 °F 100% 29.47 in 0.7 mi NNE 3.5 mph - N/A   Overcast
6:00 AM 24 °F - 24 °F 98% 29.49 in 2 mi North 2.2 mph - - Fog Light Fog
6:00 AM 24.8 °F - 24.8 °F 100% 29.47 in 0.5 mi Variable 2.3 mph - N/A Fog Light Freezing Fog
6:30 AM 24.8 °F 20.5 °F 24.8 °F 100% 29.47 in 0.7 mi NE 3.5 mph - N/A   Overcast
7:00 AM 25 °F - 25 °F 100% 29.49 in 2 mi NE 2.2 mph - -   Mist
7:00 AM 26.6 °F 22.6 °F 24.8 °F 93% 29.44 in 0.7 mi NE 3.5 mph - N/A   Overcast
7:30 AM 26.6 °F - 26.6 °F 100% 29.47 in 0.7 mi Variable 2.3 mph - N/A   Overcast
8:00 AM 27 °F - 27 °F 98% 29.48 in 2 mi Calm Calm - -   Mist
8:00 AM 26.6 °F - 26.6 °F 100% 29.47 in 0.2 mi NE 2.3 mph - N/A Fog Light Freezing Fog
8:30 AM 28.4 °F - 26.6 °F 93% 29.47 in 0.2 mi Variable 2.3 mph - N/A Fog Light Freezing Fog
9:00 AM 28 °F - 28 °F 97% 29.49 in - NNE 2.2 mph - -  
9:00 AM 28.4 °F 23.3 °F 28.4 °F 100% 29.47 in 0.2 mi NE 4.6 mph - N/A Fog Light Freezing Fog
9:30 AM 30.2 °F 25.4 °F 30.2 °F 100% 29.44 in 0.2 mi ENE 4.6 mph - N/A Fog Light Freezing Fog
10:00 AM 31 °F - 31 °F 97% 29.46 in - NE 4.5 mph - -  
10:00 AM 32.0 °F 24.8 °F 30.2 °F 93% 29.44 in 0.4 mi ENE 8.1 mph - N/A Fog Light Freezing Fog
10:30 AM 32.0 °F 25.6 °F 30.2 °F 93% 29.44 in 0.2 mi ENE 6.9 mph - N/A Fog Light Freezing Fog
11:00 AM 32 °F - 32 °F 99% 29.46 in - NE 4.5 mph - -  
11:00 AM 32.0 °F 24.8 °F 32.0 °F 100% 29.44 in 0.2 mi ENE 8.1 mph - N/A Fog Fog
11:30 AM 32.0 °F 26.4 °F 32.0 °F 100% 29.44 in 0.4 mi ENE 5.8 mph - N/A Fog Fog
12:00 PM 34 °F - 33 °F 95% 29.46 in - NE 4.5 mph - -  
12:00 PM 33.8 °F 30.8 °F 32.0 °F 93% 29.44 in 0.6 mi NE 3.5 mph - N/A   Overcast
12:30 PM 33.8 °F 28.6 °F 33.8 °F 100% 29.42 in 0.7 mi NE 5.8 mph - N/A   Overcast
1:00 PM 35 °F - 33 °F 87% 29.44 in 2 mi NNE 4.5 mph - -   Mist
1:00 PM 33.8 °F 29.6 °F 33.8 °F 100% 29.42 in 0.9 mi NE 4.6 mph - N/A   Overcast
1:30 PM 33.8 °F 29.6 °F 33.8 °F 100% 29.42 in 0.9 mi ENE 4.6 mph - N/A   Overcast
2:00 PM 35 °F - 32 °F 84% 29.42 in 2 mi NE 4.5 mph - -   Mist
2:00 PM 33.8 °F 28.6 °F 33.8 °F 100% 29.42 in 1.2 mi East 5.8 mph - N/A   Overcast
2:30 PM 35.6 °F - 33.8 °F 93% 29.42 in 1.6 mi Variable 2.3 mph - N/A   Scattered Clouds
3:00 PM 37 °F - 32 °F 76% 29.41 in 2 mi North 2.2 mph - -   Mist
3:00 PM 35.6 °F 32.8 °F 33.8 °F 93% 29.42 in 1.9 mi ENE 3.5 mph - N/A   Mostly Cloudy
3:30 PM 35.6 °F 32.8 °F 35.6 °F 100% 29.42 in 1.9 mi ENE 3.5 mph - N/A   Mostly Cloudy
4:00 PM 36 °F - 32 °F 79% 29.41 in 6 mi North 4.5 mph - -   Overcast
4:00 PM 35.6 °F 32.8 °F 33.8 °F 93% 29.42 in 2.2 mi East 3.5 mph - N/A   Scattered Clouds
4:30 PM 35.6 °F 31.7 °F 33.8 °F 93% 29.42 in 1.9 mi East 4.6 mph - N/A Rain Light Rain
5:00 PM 36 °F - 32 °F 79% 29.43 in 6 mi East 2.2 mph - - Rain Light Rain
5:00 PM 35.6 °F - 33.8 °F 93% 29.44 in 1.9 mi Variable 1.2 mph - N/A   Partly Cloudy
5:30 PM 35.6 °F - 35.6 °F 100% 29.44 in 1.2 mi Variable 2.3 mph - N/A   Mostly Cloudy
6:00 PM 34 °F - 33 °F 93% 29.46 in 6 mi WSW 2.2 mph - - Rain Light Rain
6:00 PM 35.6 °F 32.8 °F 35.6 °F 100% 29.44 in 1.2 mi West 3.5 mph - N/A   Light Drizzle
6:30 PM 35.6 °F 31.7 °F 33.8 °F 93% 29.44 in 1.2 mi West 4.6 mph - N/A Rain Light Rain
7:00 PM 34 °F - 33 °F 94% 29.47 in 6 mi WSW 4.5 mph - - Rain Light Rain
7:00 PM 35.6 °F 29.2 °F 33.8 °F 93% 29.47 in 1.9 mi West 8.1 mph - N/A Rain Light Rain
7:30 PM 33.8 °F 26.4 °F 33.8 °F 100% 29.47 in 1.9 mi West 9.2 mph - N/A Rain Light Rain
8:00 PM 33 °F - 33 °F 99% 29.49 in 6 mi WSW 6.7 mph - - Rain Light Rain
8:00 PM 33.8 °F 25.8 °F 33.8 °F 100% 29.50 in 1.9 mi West 10.4 mph - N/A   Mostly Cloudy
8:30 PM 33.8 °F 25.8 °F 33.8 °F 100% 29.50 in 1.9 mi West 10.4 mph - N/A   Mostly Cloudy
9:00 PM 33 °F - 32 °F 95% 29.52 in 6 mi WSW 6.7 mph - - Rain Light Rain
9:00 PM 33.8 °F 24.8 °F 32.0 °F 93% 29.50 in 2.2 mi West 12.7 mph - N/A   Overcast
9:30 PM 33.8 °F 23.9 °F 32.0 °F 93% 29.53 in 2.5 mi West 15.0 mph - N/A   Mostly Cloudy
10:00 PM 32 °F - 31 °F 97% 29.54 in 6 mi WSW 8.9 mph - - Rain Light Rain
10:00 PM 33.8 °F 23.5 °F 32.0 °F 93% 29.53 in 2.5 mi West 16.1 mph - N/A   Overcast
10:30 PM 33.8 °F 24.3 °F 32.0 °F 93% 29.53 in 2.5 mi West 13.8 mph - N/A   Overcast
11:00 PM 33 °F - 32 °F 95% 29.55 in 6 mi WSW 11.2 mph - -   Partly Cloudy
11:00 PM 33.8 °F 23.9 °F 32.0 °F 93% 29.56 in 2.5 mi West 15.0 mph - N/A   Overcast
11:30 PM 33.8 °F 23.5 °F 32.0 °F 93% 29.56 in 2.5 mi West 16.1 mph - N/A   Overcast